FW3161 Weather Reports


time (UTC)temp
C
wind
direction
speed
KPH
gust
KPH
rain 1hr
cm
rain 24hr
cm
rain mn
cm
humidity
%
barometer
mb
20260507143025 21 360 4.8 9.7 0.00 0.00 0.00 20 1012.8
20260507141523 21 360 6.4 8.0 0.00 0.00 0.00 17 1012.6
20260507140024 21 360 1.6 3.2 0.00 0.00 0.00 19 1012.5
20260507134525 20 360 0.0 3.2 0.00 0.00 0.00 22 1012.4
20260507133022 20 360 1.6 4.8 0.00 0.00 0.00 22 1012.4
20260507131521 19 360 1.6 4.8 0.00 0.00 0.00 21 1012.4
20260507130020 18 360 1.6 6.4 0.00 0.00 0.00 21 1012.3
20260507124523 18 360 0.0 3.2 0.00 0.00 0.00 21 1012.2
20260507123018 18 360 0.0 4.8 0.00 0.00 0.00 22 1012.1
20260507121517 18 360 3.2 6.4 0.00 0.00 0.00 21 1012.1
20260507120015 19 360 3.2 6.4 0.00 0.00 0.00 20 1012.2
20260507114514 19 360 4.8 8.0 0.00 0.00 0.00 20 1012.1
20260507113017 19 360 6.4 9.7 0.00 0.00 0.00 21 1012.3
20260507111510 20 360 6.4 9.7 0.00 0.00 0.00 20 1012.4
20260507110006 20 360 6.4 9.7 0.00 0.00 0.00 18 1012.4
20260507104503 20 360 4.8 9.7 0.00 0.00 0.00 16 1012.4
20260507103002 21 360 3.2 4.8 0.00 0.00 0.00 15 1012.5
20260507101502 21 360 1.6 4.8 0.00 0.00 0.00 15 1012.6
20260507100003 21 360 3.2 4.8 0.00 0.00 0.00 15 1012.8
20260507094600 21 360 3.2 8.0 0.00 0.00 0.00 16 1012.8
20260507093103 21 360 6.4 12.9 0.00 0.00 0.00 15 1012.6
20260507091603 21 360 3.2 8.0 0.00 0.00 0.00 15 1012.7
20260507090054 21 360 3.2 6.4 0.00 0.00 0.00 14 1012.6
20260507084557 21 360 3.2 8.0 0.00 0.00 0.00 13 1012.7
20260507083056 21 360 4.8 8.0 0.00 0.00 0.00 13 1012.8
20260507081549 22 360 4.8 8.0 0.00 0.00 0.00 12 1012.8
20260507080112 22 360 3.2 6.4 0.00 0.00 0.00 12 1013.0
20260507074552 22 360 3.2 8.0 0.00 0.00 0.00 13 1012.9
20260507073053 22 360 4.8 8.0 0.00 0.00 0.00 13 1012.9
20260507071604 22 360 3.2 8.0 0.00 0.00 0.00 13 1013.0
20260507070042 22 360 3.2 6.4 0.00 0.00 0.00 13 1013.0
20260507064546 22 360 3.2 8.0 0.00 0.00 0.00 13 1013.0
20260507063041 23 360 3.2 6.4 0.00 0.00 0.00 12 1013.0
20260507061541 23 360 3.2 8.0 0.00 0.00 0.00 12 1013.0
20260507060139 23 360 4.8 6.4 0.00 0.00 0.00 12 1013.0
20260507054546 23 360 3.2 6.4 0.00 0.00 0.00 11 1013.1
20260507053045 23 360 3.2 6.4 0.00 0.00 0.00 11 1013.0
20260507051538 24 360 3.2 6.4 0.00 0.00 0.00 11 1013.0
20260507050037 24 360 4.8 8.0 0.00 0.00 0.00 11 1012.9
20260507044536 24 360 3.2 8.0 0.00 0.00 0.00 11 1012.9
20260507043038 25 360 1.6 8.0 0.00 0.00 0.00 10 1012.9
20260507041536 25 360 3.2 8.0 0.00 0.00 0.00 11 1012.6
20260507040038 25 360 3.2 12.9 0.00 0.00 0.00 10 1012.6
20260507034535 26 360 3.2 9.7 0.00 0.00 0.00 10 1012.4
20260507033039 26 360 0.0 6.4 0.00 0.00 0.00 9 1012.3
20260507031534 26 360 1.6 6.4 0.00 0.00 0.00 9 1012.1
20260507030034 26 360 3.2 8.0 0.00 0.00 0.00 8 1011.8
20260507024535 27 360 3.2 8.0 0.00 0.00 0.00 8 1011.5
20260507023033 27 360 3.2 9.7 0.00 0.00 0.00 8 1011.4
20260507021532 27 360 4.8 14.5 0.00 0.00 0.00 7 1011.4
20260507020034 28 360 4.8 12.9 0.00 0.00 0.00 7 1011.3
20260507014532 28 360 6.4 14.5 0.00 0.00 0.00 6 1011.3
20260507013037 28 360 3.2 12.9 0.00 0.00 0.00 6 1011.3
20260507011538 28 184 3.2 14.5 0.00 0.00 0.00 6 1011.3
20260507010031 29 216 6.4 14.5 0.00 0.00 0.00 6 1011.3
20260507004530 29 236 8.0 19.3 0.00 0.00 0.00 7 1011.3
20260507003028 29 224 4.8 11.3 0.00 0.00 0.00 6 1011.4
20260507001530 29 246 6.4 12.9 0.00 0.00 0.00 7 1011.3
20260507000026 29 360 3.2 14.5 0.00 0.00 0.00 7 1011.4
20260506234531 29 360 3.2 12.9 0.00 0.00 0.00 7 1011.4
20260506233026 29 240 4.8 16.1 0.00 0.00 0.00 7 1011.6
20260506231524 29 170 6.4 16.1 0.00 0.00 0.00 7 1011.8
20260506230020 29 360 3.2 16.1 0.00 0.00 0.00 7 1011.9
20260506224526 28 360 4.8 17.7 0.00 0.00 0.00 8 1012.1
20260506223017 28 225 3.2 12.9 0.00 0.00 0.00 7 1012.2
20260506221515 29 205 4.8 12.9 0.00 0.00 0.00 7 1012.4
20260506220013 28 360 1.6 9.7 0.00 0.00 0.00 8 1012.7
20260506214512 28 360 3.2 14.5 0.00 0.00 0.00 8 1012.9
20260506213019 28 360 4.8 12.9 0.00 0.00 0.00 7 1013.3
20260506211515 28 360 4.8 16.1 0.00 0.00 0.00 7 1013.5
20260506210012 28 360 3.2 12.9 0.00 0.00 0.00 7 1013.7
20260506204509 27 360 8.0 17.7 0.00 0.00 0.00 7 1013.9
20260506203008 28 219 8.0 17.7 0.00 0.00 0.00 7 1014.0
20260506201507 27 360 3.2 9.7 0.00 0.00 0.00 8 1014.1
20260506200010 27 360 16.1 22.5 0.00 0.00 0.00 8 1014.3
20260506194505 27 360 3.2 9.7 0.00 0.00 0.00 8 1014.3
20260506193004 27 360 4.8 14.5 0.00 0.00 0.00 7 1014.5
20260506191503 26 360 8.0 14.5 0.00 0.00 0.00 9 1014.7
20260506190003 26 157 6.4 16.1 0.00 0.00 0.00 10 1014.8
20260506184602 26 360 3.2 14.5 0.00 0.00 0.00 11 1015.0
20260506183111 26 360 4.8 16.1 0.00 0.00 0.00 12 1015.1
20260506181601 26 360 4.8 17.7 0.00 0.00 0.00 12 1015.3
20260506180057 25 360 1.6 12.9 0.00 0.00 0.00 13 1015.5
20260506174607 25 360 4.8 14.5 0.00 0.00 0.00 14 1015.4
20260506173153 25 360 1.6 6.4 0.00 0.00 0.00 14 1015.5
20260506171549 24 360 3.2 16.1 0.00 0.00 0.00 14 1015.5
20260506170048 23 360 6.4 16.1 0.00 0.00 0.00 16 1015.4
20260506164549 23 360 8.0 19.3 0.00 0.00 0.00 18 1015.5
20260506163057 23 360 3.2 14.5 0.00 0.00 0.00 19 1015.4
20260506161539 22 360 6.4 16.1 0.00 0.00 0.00 20 1015.5
20260506160037 21 258 4.8 16.1 0.00 0.00 0.00 20 1015.3
20260506154537 21 263 4.8 12.9 0.00 0.00 0.00 21 1015.3
20260506153032 20 231 8.0 12.9 0.00 0.00 0.00 22 1015.3
20260506151536 20 360 4.8 12.9 0.00 0.00 0.00 23 1015.4
20260506150024 19 360 3.2 9.7 0.00 0.00 0.00 25 1015.5
20260506144522 18 360 6.4 12.9 0.00 0.00 0.00 25 1015.4